Location: Sternwarte ZA, Rosenfeld-Brittheim
(48.2889°N, 8.6789°E)
Time: 02:37:30
(UTC+02:00)

ISS - Pass Details

Date: 01 July 2020
Orbit: 417 x 421 km, 51.6° (Epoch: 08 July)

Event Time Altitude Azimuth Distance (km) Brightness Sun altitude
Exits shadow 04:07:34 14° 192° (SSW) 1,287 -1.8 -10.3°
Maximum altitude 04:09:45 25° 142° (SE) 887 -2.3 -10.1°
Drops below altitude 10° 04:12:34 10° 85° (E) 1,497 -0.3 -9.8°
Sets 04:14:53 0° 72° (ENE) 2,364 1.1 -9.6°
